Location: Ferques
(50.8300°N, 1.7599°E)
Time: 19:22:30
(UTC+00:00)

Cosmos 1980 Rocket - Pass Details

Date: 19 May 2025
Orbit: 829 x 848 km, 71.0° (Epoch: 22 June)

Event Time Altitude Azimuth Distance (km) Brightness Sun altitude
Rises 20:44:39 0° 332° (NNW) 3,384 7.2 -8.4°
Reaches altitude 10° 20:47:12 10° 338° (NNW) 2,447 5.9 -8.7°
Maximum altitude 20:52:35 46° 51° (NE) 1,116 2.8 -9.2°
Enters shadow 20:57:41 11° 124° (ESE) 2,347 3.9 -9.8°
